INSPIRATION4 (49220 NORAD) Tracking and Keplerian Element Data

This shows tracking and keplerian element data for the satellite.

Feedback or suggestion? Click here.




ElementValue
Catalog49220
NameINSPIRATION4
Epoch Orbit7
Epoch Day259.48981751
Epoch Year2021
RAAN248.7948
Inclination51.6453
Eccentricity0.0006916
Argument of Perigee327.78
Mean Anonmoly175.2734
Mean Motion14.97540535
Decay Rate-0.00030321
L11 49220U 21084A 21259.48981751 -.00030321 00000-0 -25580-2 0 9997
L22 49220 51.6453 248.7948 0006916 327.7800 175.2734 14.97540535 73

Live tracking and technical data element details for INSPIRATION4 (NORAD 49220). INSPIRATION4 can be tracked NOW for your location showing map with azimuth and elevation plus other details from your city location.

Track the satellite on the map from your city or location and see movement details for azimuth, elevation, latitude, longitude, range, height, and movement on the map or in text.







IsCatalogInMostPopularTable: catalog: 49220, numindb: 14
Update: records affected: 1



GetName: 49220 INSPIRATION4

Hit Count: updated at: Tue, 19 Oct 2021 07:45:52 GMT